#timestamp,LO_Frequency,Hit,StdDev 
1578296575.8,286046991.7,P
1578296595.6,286046992.5,P
1578296615.5,286046990.3,P
1578296635.3,286046990.7,Y
1578296655.1,286046998.5,P
1578296675.9,286046998.8,N
1578296695.7,286046997.0,N
1578296715.5,286046999.1,N
1578296735.4,286046998.8,N
1578296755.2,286046996.9,N
1578296775.1,286046999.3,N
1578296776.0,286046999.3,N
1578296795.8,286046999.3,N
1578296815.6,286046998.4,N
1578296835.5,286046998.2,N
1578296855.3,286046999.1,N
1578296875.2,286046998.1,N
1578296895.9,286046999.9,N
1578296915.7,286047000.1,N
1578296935.6,286047000.7,N
1578296955.4,286046998.8,N
1578296975.2,286046996.5,N
1578296995.1,286046997.0,N
1578296996.0,286046997.0,N
1578297015.8,286046997.7,N
1578297035.7,286046997.5,N
1578297055.5,286046995.1,N
1578297075.3,286046996.0,N
1578297095.2,286046995.7,N
1578297115.0,286046995.7,N
1578297115.9,286046995.7,N
1578297135.8,286046993.6,Y
1578297155.6,286046995.8,P
1578297175.4,286046996.3,P
1578297195.3,286046996.3,P
1578297215.1,286046994.5,Y
1578297235.8,286046997.0,P
1578297255.7,286046997.8,P
1578297275.5,286046996.7,P
1578297295.4,286046997.0,Y
1578297315.2,286046999.7,P
1578297335.0,286047000.4,N
1578297335.9,286047000.4,N
1578297355.8,286047001.1,N
1578297375.6,286047001.0,N
1578297395.4,286047000.8,N
1578297415.3,286046998.2,N
1578297435.1,286047000.8,N
1578297455.9,286046998.8,N
1578297475.7,286046998.8,N
1578297495.5,286046998.2,N
1578297515.4,286046998.9,N
1578297535.2,286046998.1,N
1578297555.0,286046998.9,N
1578297555.9,286046998.9,N
1578297575.8,286046999.1,N
1578297595.6,286046996.5,Y
